Time,TemperatureF,DewpointF,PressureIn,WindDirection,WindDirectionDegrees,WindSpeedMPH,WindSpeedGustMPH,Humidity,HourlyPrecipIn,Conditions,Clouds,dailyrainin,SoftwareType,DateUTC
2013-02-24 00:00:00,30.0,29.0,29.66,ENE,67,3.0,3.0,92,0.00,,,0.00,Rainwise IP-100,2013-02-24 05:00:00,
2013-02-24 00:05:00,30.0,29.0,29.66,ESE,112,2.0,3.0,92,0.00,,,0.00,Rainwise IP-100,2013-02-24 05:05:00,
2013-02-24 00:10:00,30.0,29.0,29.66,ESE,112,2.0,3.0,92,0.00,,,0.00,Rainwise IP-100,2013-02-24 05:10:00,
2013-02-24 00:15:00,29.0,28.0,29.66,NE,45,4.0,4.0,93,0.00,,,0.00,Rainwise IP-100,2013-02-24 05:15:00,
2013-02-24 00:20:00,29.0,28.0,29.66,NE,45,4.0,4.0,93,0.00,,,0.00,Rainwise IP-100,2013-02-24 05:20:00,
2013-02-24 00:25:00,29.0,28.0,29.65,ENE,67,5.0,6.0,95,0.00,,,0.00,Rainwise IP-100,2013-02-24 05:25:00,
2013-02-24 00:30:00,29.0,28.0,29.65,ENE,67,5.0,6.0,95,0.00,,,0.00,Rainwise IP-100,2013-02-24 05:30:00,
2013-02-24 00:35:00,29.0,28.0,29.65,ENE,67,5.0,7.0,96,0.00,,,0.00,Rainwise IP-100,2013-02-24 05:35:00,
2013-02-24 00:40:00,29.0,28.0,29.65,ESE,112,4.0,7.0,96,0.00,,,0.00,Rainwise IP-100,2013-02-24 05:40:00,
2013-02-24 00:45:00,29.0,28.0,29.65,ENE,67,5.0,7.0,96,0.00,,,0.00,Rainwise IP-100,2013-02-24 05:45:00,
2013-02-24 00:50:00,29.0,28.0,29.65,ESE,112,4.0,7.0,96,0.00,,,0.00,Rainwise IP-100,2013-02-24 05:50:00,
2013-02-24 00:55:00,29.0,28.0,29.65,ESE,112,4.0,7.0,96,0.00,,,0.00,Rainwise IP-100,2013-02-24 05:55:00,
2013-02-24 01:00:00,28.0,28.0,29.64,ESE,112,5.0,7.0,100,0.00,,,0.00,Rainwise IP-100,2013-02-24 06:00:00,
2013-02-24 01:05:00,28.0,28.0,29.64,ESE,112,5.0,5.0,100,0.00,,,0.00,Rainwise IP-100,2013-02-24 06:05:00,
2013-02-24 01:10:00,28.0,28.0,29.63,East,90,2.0,6.0,100,0.00,,,0.00,Rainwise IP-100,2013-02-24 06:10:00,
2013-02-24 01:15:00,28.0,28.0,29.63,East,90,4.0,5.0,100,0.00,,,0.00,Rainwise IP-100,2013-02-24 06:15:00,
2013-02-24 01:20:00,28.0,28.0,29.63,ENE,67,3.0,5.0,100,0.00,,,0.00,Rainwise IP-100,2013-02-24 06:20:00,
2013-02-24 01:25:00,28.0,28.0,29.63,ENE,67,1.0,4.0,100,0.00,,,0.00,Rainwise IP-100,2013-02-24 06:25:00,
2013-02-24 01:30:00,28.0,28.0,29.63,ENE,67,1.0,3.0,100,0.00,,,0.00,Rainwise IP-100,2013-02-24 06:30:00,
2013-02-24 01:35:00,28.0,28.0,29.62,SE,135,3.0,3.0,100,0.00,,,0.00,Rainwise IP-100,2013-02-24 06:35:00,
2013-02-24 01:40:00,27.0,28.0,29.62,East,90,3.0,5.0,100,0.00,,,0.00,Rainwise IP-100,2013-02-24 06:40:00,
2013-02-24 01:45:00,27.0,28.0,29.62,SE,135,0.0,7.0,100,0.00,,,0.00,Rainwise IP-100,2013-02-24 06:45:00,
2013-02-24 01:50:00,27.0,28.0,29.62,East,90,4.0,6.0,100,0.00,,,0.00,Rainwise IP-100,2013-02-24 06:50:00,
2013-02-24 01:55:00,27.0,28.0,29.61,ESE,112,3.0,9.0,100,0.00,,,0.00,Rainwise IP-100,2013-02-24 06:55:00,
2013-02-24 02:00:00,27.0,28.0,29.61,ENE,67,4.0,9.0,100,0.00,,,0.00,Rainwise IP-100,2013-02-24 07:00:00,
2013-02-24 02:05:00,28.0,28.0,29.60,East,90,4.0,8.0,100,0.00,,,0.00,Rainwise IP-100,2013-02-24 07:05:00,
2013-02-24 02:10:00,28.0,28.0,29.60,NNE,22,5.0,9.0,100,0.00,,,0.00,Rainwise IP-100,2013-02-24 07:10:00,
2013-02-24 02:15:00,28.0,28.0,29.61,ESE,112,3.0,6.0,100,0.00,,,0.00,Rainwise IP-100,2013-02-24 07:15:00,
2013-02-24 02:20:00,28.0,28.0,29.61,ENE,67,3.0,9.0,100,0.00,,,0.00,Rainwise IP-100,2013-02-24 07:20:00,
2013-02-24 02:25:00,28.0,28.0,29.59,ENE,67,5.0,8.0,100,0.00,,,0.00,Rainwise IP-100,2013-02-24 07:25:00,
2013-02-24 02:30:00,28.0,28.0,29.59,East,90,4.0,8.0,100,0.00,,,0.00,Rainwise IP-100,2013-02-24 07:30:00,
2013-02-24 02:35:00,28.0,28.0,29.59,NE,45,6.0,11.0,100,0.00,,,0.00,Rainwise IP-100,2013-02-24 07:35:00,
2013-02-24 02:40:00,28.0,28.0,29.59,East,90,4.0,12.0,100,0.00,,,0.00,Rainwise IP-100,2013-02-24 07:40:00,
2013-02-24 02:45:00,28.0,28.0,29.59,NNE,22,3.0,8.0,100,0.00,,,0.00,Rainwise IP-100,2013-02-24 07:45:00,
2013-02-24 02:50:00,28.0,28.0,29.59,ENE,67,6.0,9.0,100,0.00,,,0.00,Rainwise IP-100,2013-02-24 07:50:00,
2013-02-24 02:55:00,28.0,28.0,29.59,ESE,112,5.0,10.0,100,0.00,,,0.00,Rainwise IP-100,2013-02-24 07:55:00,
2013-02-24 03:00:00,28.0,28.0,29.59,NE,45,4.0,11.0,100,0.00,,,0.00,Rainwise IP-100,2013-02-24 08:00:00,
2013-02-24 03:05:00,28.0,28.0,29.58,NE,45,3.0,10.0,100,0.00,,,0.00,Rainwise IP-100,2013-02-24 08:05:00,
2013-02-24 03:10:00,28.0,28.0,29.58,NE,45,4.0,11.0,100,0.00,,,0.00,Rainwise IP-100,2013-02-24 08:10:00,
2013-02-24 03:15:00,28.0,28.0,29.57,NE,45,10.0,12.0,100,0.00,,,0.00,Rainwise IP-100,2013-02-24 08:15:00,
2013-02-24 03:20:00,28.0,28.0,29.57,NNE,22,7.0,13.0,100,0.00,,,0.00,Rainwise IP-100,2013-02-24 08:20:00,
2013-02-24 03:25:00,27.0,28.0,29.57,NE,45,10.0,11.0,100,0.00,,,0.00,Rainwise IP-100,2013-02-24 08:25:00,
2013-02-24 03:30:00,27.0,28.0,29.57,NE,45,8.0,12.0,100,0.00,,,0.00,Rainwise IP-100,2013-02-24 08:30:00,
2013-02-24 03:35:00,27.0,28.0,29.56,NE,45,10.0,10.0,100,0.00,,,0.00,Rainwise IP-100,2013-02-24 08:35:00,
2013-02-24 03:40:00,27.0,28.0,29.56,ENE,67,8.0,13.0,100,0.00,,,0.00,Rainwise IP-100,2013-02-24 08:40:00,
2013-02-24 03:45:00,27.0,28.0,29.57,NE,45,13.0,13.0,100,0.00,,,0.00,Rainwise IP-100,2013-02-24 08:45:00,
2013-02-24 03:50:00,27.0,28.0,29.57,NE,45,6.0,13.0,100,0.00,,,0.00,Rainwise IP-100,2013-02-24 08:50:00,
2013-02-24 03:55:00,27.0,28.0,29.56,ENE,67,6.0,11.0,100,0.00,,,0.00,Rainwise IP-100,2013-02-24 08:55:00,
2013-02-24 04:00:00,27.0,28.0,29.56,NE,45,7.0,12.0,100,0.00,,,0.00,Rainwise IP-100,2013-02-24 09:00:00,
2013-02-24 04:05:00,27.0,28.0,29.58,NE,45,4.0,11.0,100,0.00,,,0.00,Rainwise IP-100,2013-02-24 09:05:00,
2013-02-24 04:10:00,27.0,28.0,29.58,NE,45,5.0,10.0,100,0.00,,,0.00,Rainwise IP-100,2013-02-24 09:10:00,
2013-02-24 04:15:00,27.0,28.0,29.56,NE,45,6.0,14.0,100,0.00,,,0.00,Rainwise IP-100,2013-02-24 09:15:00,
2013-02-24 04:20:00,27.0,28.0,29.56,ENE,67,7.0,13.0,100,0.00,,,0.00,Rainwise IP-100,2013-02-24 09:20:00,
2013-02-24 04:25:00,27.0,28.0,29.54,ENE,67,5.0,14.0,100,0.00,,,0.00,Rainwise IP-100,2013-02-24 09:25:00,
2013-02-24 04:30:00,27.0,28.0,29.54,ENE,67,7.0,11.0,100,0.00,,,0.00,Rainwise IP-100,2013-02-24 09:30:00,
2013-02-24 04:35:00,27.0,28.0,29.53,ENE,67,5.0,12.0,100,0.00,,,0.00,Rainwise IP-100,2013-02-24 09:35:00,
2013-02-24 04:40:00,27.0,28.0,29.53,ENE,67,6.0,11.0,100,0.00,,,0.00,Rainwise IP-100,2013-02-24 09:40:00,
2013-02-24 04:45:00,27.0,28.0,29.53,ENE,67,5.0,10.0,100,0.00,,,0.00,Rainwise IP-100,2013-02-24 09:45:00,
2013-02-24 04:50:00,28.0,28.0,29.53,East,90,9.0,10.0,100,0.00,,,0.00,Rainwise IP-100,2013-02-24 09:50:00,
2013-02-24 04:55:00,28.0,28.0,29.53,ENE,67,6.0,11.0,100,0.00,,,0.00,Rainwise IP-100,2013-02-24 09:55:00,
2013-02-24 05:00:00,28.0,28.0,29.53,ENE,67,8.0,12.0,100,0.00,,,0.00,Rainwise IP-100,2013-02-24 10:00:00,
2013-02-24 05:05:00,28.0,28.0,29.53,ENE,67,10.0,11.0,100,0.00,,,0.00,Rainwise IP-100,2013-02-24 10:05:00,
2013-02-24 05:10:00,28.0,28.0,29.53,ENE,67,9.0,11.0,100,0.00,,,0.00,Rainwise IP-100,2013-02-24 10:10:00,
2013-02-24 05:15:00,28.0,28.0,29.52,ENE,67,5.0,10.0,100,0.00,,,0.00,Rainwise IP-100,2013-02-24 10:15:00,
2013-02-24 05:20:00,28.0,28.0,29.52,East,90,6.0,11.0,100,0.00,,,0.00,Rainwise IP-100,2013-02-24 10:20:00,
2013-02-24 05:25:00,28.0,28.0,29.53,ENE,67,8.0,12.0,100,0.00,,,0.00,Rainwise IP-100,2013-02-24 10:25:00,
2013-02-24 05:30:00,28.0,28.0,29.53,East,90,8.0,12.0,100,0.00,,,0.00,Rainwise IP-100,2013-02-24 10:30:00,
2013-02-24 05:35:00,28.0,28.0,29.53,NE,45,8.0,14.0,100,0.00,,,0.00,Rainwise IP-100,2013-02-24 10:35:00,
2013-02-24 05:40:00,28.0,28.0,29.53,NE,45,7.0,13.0,100,0.00,,,0.00,Rainwise IP-100,2013-02-24 10:40:00,
2013-02-24 05:45:00,28.0,28.0,29.53,East,90,8.0,11.0,100,0.00,,,0.00,Rainwise IP-100,2013-02-24 10:45:00,
2013-02-24 05:50:00,28.0,28.0,29.53,NE,45,4.0,15.0,100,0.00,,,0.00,Rainwise IP-100,2013-02-24 10:50:00,
2013-02-24 05:55:00,28.0,28.0,29.53,NE,45,8.0,12.0,99,0.00,,,0.00,Rainwise IP-100,2013-02-24 10:55:00,
2013-02-24 06:00:00,28.0,28.0,29.53,ENE,67,8.0,13.0,99,0.00,,,0.00,Rainwise IP-100,2013-02-24 11:00:00,
2013-02-24 06:05:00,28.0,28.0,29.52,ESE,112,7.0,12.0,99,0.00,,,0.00,Rainwise IP-100,2013-02-24 11:05:00,
2013-02-24 06:10:00,28.0,28.0,29.52,NE,45,7.0,12.0,99,0.00,,,0.00,Rainwise IP-100,2013-02-24 11:10:00,
2013-02-24 06:15:00,28.0,28.0,29.52,NE,45,11.0,12.0,99,0.00,,,0.00,Rainwise IP-100,2013-02-24 11:15:00,
2013-02-24 06:20:00,28.0,28.0,29.52,ESE,112,5.0,12.0,99,0.00,,,0.00,Rainwise IP-100,2013-02-24 11:20:00,
2013-02-24 06:25:00,28.0,28.0,29.53,ENE,67,4.0,13.0,98,0.00,,,0.00,Rainwise IP-100,2013-02-24 11:25:00,
2013-02-24 06:30:00,28.0,28.0,29.53,ENE,67,9.0,11.0,98,0.00,,,0.00,Rainwise IP-100,2013-02-24 11:30:00,
2013-02-24 06:35:00,29.0,29.0,29.51,East,90,10.0,13.0,98,0.00,,,0.00,Rainwise IP-100,2013-02-24 11:35:00,
2013-02-24 06:40:00,28.0,28.0,29.51,NE,45,2.0,13.0,99,0.00,,,0.00,Rainwise IP-100,2013-02-24 11:40:00,
2013-02-24 06:45:00,29.0,29.0,29.51,East,90,6.0,12.0,98,0.00,,,0.00,Rainwise IP-100,2013-02-24 11:45:00,
2013-02-24 06:50:00,29.0,29.0,29.51,ENE,67,8.0,14.0,98,0.00,,,0.00,Rainwise IP-100,2013-02-24 11:50:00,
2013-02-24 06:55:00,29.0,29.0,29.51,East,90,4.0,12.0,98,0.00,,,0.00,Rainwise IP-100,2013-02-24 11:55:00,
2013-02-24 07:00:00,29.0,29.0,29.51,ENE,67,8.0,10.0,98,0.00,,,0.00,Rainwise IP-100,2013-02-24 12:00:00,
2013-02-24 07:05:00,29.0,29.0,29.51,East,90,6.0,10.0,98,0.00,,,0.00,Rainwise IP-100,2013-02-24 12:05:00,
2013-02-24 07:10:00,29.0,29.0,29.51,East,90,7.0,10.0,98,0.00,,,0.00,Rainwise IP-100,2013-02-24 12:10:00,
2013-02-24 07:15:00,29.0,29.0,29.51,ENE,67,4.0,10.0,98,0.00,,,0.00,Rainwise IP-100,2013-02-24 12:15:00,
2013-02-24 07:20:00,29.0,29.0,29.51,NE,45,7.0,10.0,98,0.00,,,0.00,Rainwise IP-100,2013-02-24 12:20:00,
2013-02-24 07:25:00,29.0,29.0,29.51,ENE,67,7.0,11.0,98,0.00,,,0.00,Rainwise IP-100,2013-02-24 12:25:00,
2013-02-24 07:30:00,29.0,29.0,29.51,East,90,4.0,11.0,98,0.00,,,0.00,Rainwise IP-100,2013-02-24 12:30:00,
2013-02-24 07:34:00,29.0,29.0,29.51,ESE,112,7.0,10.0,98,0.00,,,0.00,Rainwise IP-100,2013-02-24 12:34:00,
2013-02-24 07:37:00,29.0,29.0,29.51,ESE,112,6.0,10.0,98,0.00,,,0.00,Rainwise IP-100,2013-02-24 12:37:00,
2013-02-24 07:42:00,29.0,29.0,29.50,East,90,8.0,10.0,97,0.00,,,0.00,Rainwise IP-100,2013-02-24 12:42:00,
2013-02-24 07:47:00,29.0,29.0,29.50,East,90,4.0,12.0,97,0.00,,,0.00,Rainwise IP-100,2013-02-24 12:47:00,
2013-02-24 07:52:00,29.0,29.0,29.50,East,90,6.0,10.0,97,0.00,,,0.00,Rainwise IP-100,2013-02-24 12:52:00,
2013-02-24 07:57:00,29.0,29.0,29.50,ESE,112,7.0,10.0,97,0.00,,,0.00,Rainwise IP-100,2013-02-24 12:57:00,
2013-02-24 08:02:00,30.0,29.0,29.50,East,90,8.0,10.0,97,0.00,,,0.00,Rainwise IP-100,2013-02-24 13:02:00,
2013-02-24 08:07:00,30.0,29.0,29.50,ESE,112,3.0,10.0,97,0.00,,,0.00,Rainwise IP-100,2013-02-24 13:07:00,
2013-02-24 08:12:00,30.0,29.0,29.51,East,90,6.0,7.0,97,0.00,,,0.00,Rainwise IP-100,2013-02-24 13:12:00,
2013-02-24 08:17:00,30.0,31.0,29.51,East,90,7.0,10.0,98,0.00,,,0.00,Rainwise IP-100,2013-02-24 13:17:00,
2013-02-24 08:22:00,30.0,31.0,29.50,East,90,4.0,10.0,98,0.00,,,0.00,Rainwise IP-100,2013-02-24 13:22:00,
2013-02-24 08:27:00,30.0,31.0,29.50,East,90,6.0,9.0,98,0.00,,,0.00,Rainwise IP-100,2013-02-24 13:27:00,
2013-02-24 08:32:00,30.0,31.0,29.49,ENE,67,4.0,10.0,98,0.00,,,0.00,Rainwise IP-100,2013-02-24 13:32:00,
2013-02-24 08:37:00,30.0,31.0,29.49,East,90,8.0,10.0,98,0.00,,,0.00,Rainwise IP-100,2013-02-24 13:37:00,
2013-02-24 08:42:00,30.0,31.0,29.49,East,90,7.0,11.0,98,0.00,,,0.00,Rainwise IP-100,2013-02-24 13:42:00,
2013-02-24 08:47:00,30.0,31.0,29.49,ENE,67,4.0,7.0,98,0.00,,,0.00,Rainwise IP-100,2013-02-24 13:47:00,
2013-02-24 08:52:00,30.0,31.0,29.49,ESE,112,6.0,8.0,98,0.00,,,0.00,Rainwise IP-100,2013-02-24 13:52:00,
2013-02-24 08:57:00,30.0,31.0,29.49,ESE,112,4.0,10.0,98,0.00,,,0.00,Rainwise IP-100,2013-02-24 13:57:00,
2013-02-24 09:02:00,30.0,29.0,29.49,ESE,112,6.0,9.0,97,0.00,,,0.00,Rainwise IP-100,2013-02-24 14:02:00,
2013-02-24 09:07:00,30.0,29.0,29.49,East,90,6.0,10.0,97,0.00,,,0.00,Rainwise IP-100,2013-02-24 14:07:00,
2013-02-24 09:12:00,30.0,29.0,29.49,South,180,0.0,9.0,97,0.00,,,0.00,Rainwise IP-100,2013-02-24 14:12:00,
2013-02-24 09:17:00,30.0,29.0,29.49,NE,45,6.0,11.0,96,0.00,,,0.00,Rainwise IP-100,2013-02-24 14:17:00,
2013-02-24 09:22:00,30.0,29.0,29.49,ENE,67,6.0,11.0,95,0.00,,,0.00,Rainwise IP-100,2013-02-24 14:22:00,
2013-02-24 09:27:00,31.0,29.0,29.49,ESE,112,4.0,8.0,95,0.00,,,0.00,Rainwise IP-100,2013-02-24 14:27:00,
2013-02-24 09:32:00,31.0,29.0,29.47,SE,135,4.0,10.0,95,0.00,,,0.00,Rainwise IP-100,2013-02-24 14:32:00,
2013-02-24 09:37:00,31.0,29.0,29.47,ENE,67,7.0,8.0,95,0.00,,,0.00,Rainwise IP-100,2013-02-24 14:37:00,
2013-02-24 09:42:00,31.0,29.0,29.48,SE,135,4.0,11.0,94,0.00,,,0.00,Rainwise IP-100,2013-02-24 14:42:00,
2013-02-24 09:46:00,31.0,29.0,29.48,ESE,112,5.0,11.0,94,0.00,,,0.00,Rainwise IP-100,2013-02-24 14:46:00,
2013-02-24 09:51:00,31.0,29.0,29.45,SE,135,6.0,14.0,92,0.00,,,0.00,Rainwise IP-100,2013-02-24 14:51:00,
2013-02-24 09:56:00,31.0,29.0,29.45,East,90,6.0,11.0,93,0.00,,,0.00,Rainwise IP-100,2013-02-24 14:56:00,
2013-02-24 10:01:00,31.0,29.0,29.46,ENE,67,5.0,9.0,93,0.00,,,0.00,Rainwise IP-100,2013-02-24 15:01:00,
2013-02-24 10:06:00,31.0,29.0,29.46,SE,135,2.0,8.0,94,0.00,,,0.00,Rainwise IP-100,2013-02-24 15:06:00,
2013-02-24 10:11:00,31.0,29.0,29.45,ESE,112,3.0,11.0,92,0.00,,,0.00,Rainwise IP-100,2013-02-24 15:11:00,
2013-02-24 10:16:00,31.0,29.0,29.45,SE,135,6.0,9.0,92,0.00,,,0.00,Rainwise IP-100,2013-02-24 15:16:00,
2013-02-24 10:21:00,31.0,29.0,29.45,SE,135,4.0,10.0,92,0.00,,,0.00,Rainwise IP-100,2013-02-24 15:21:00,
2013-02-24 10:26:00,31.0,29.0,29.45,SE,135,3.0,8.0,93,0.00,,,0.00,Rainwise IP-100,2013-02-24 15:26:00,
2013-02-24 10:31:00,31.0,29.0,29.45,East,90,7.0,12.0,92,0.00,,,0.00,Rainwise IP-100,2013-02-24 15:31:00,
2013-02-24 10:36:00,31.0,29.0,29.45,ESE,112,8.0,14.0,93,0.00,,,0.00,Rainwise IP-100,2013-02-24 15:36:00,
2013-02-24 10:41:00,31.0,29.0,29.46,NE,45,7.0,11.0,94,0.00,,,0.00,Rainwise IP-100,2013-02-24 15:41:00,
2013-02-24 10:43:00,31.0,29.0,29.46,ESE,112,6.0,7.0,94,0.00,,,0.00,Rainwise IP-100,2013-02-24 15:43:00,
2013-02-24 10:48:00,31.0,29.0,29.46,East,90,5.0,8.0,95,0.00,,,0.00,Rainwise IP-100,2013-02-24 15:48:00,
2013-02-24 10:53:00,31.0,29.0,29.45,East,90,8.0,12.0,95,0.00,,,0.00,Rainwise IP-100,2013-02-24 15:53:00,
2013-02-24 10:58:00,31.0,29.0,29.45,ENE,67,8.0,15.0,95,0.00,,,0.00,Rainwise IP-100,2013-02-24 15:58:00,
2013-02-24 11:03:00,31.0,29.0,29.44,North,360,6.0,12.0,96,0.00,,,0.00,Rainwise IP-100,2013-02-24 16:03:00,
2013-02-24 11:08:00,31.0,29.0,29.44,East,90,4.0,13.0,96,0.00,,,0.00,Rainwise IP-100,2013-02-24 16:08:00,
2013-02-24 11:13:00,31.0,29.0,29.44,East,90,7.0,13.0,96,0.00,,,0.00,Rainwise IP-100,2013-02-24 16:13:00,
2013-02-24 11:18:00,31.0,29.0,29.44,NE,45,2.0,10.0,97,0.00,,,0.00,Rainwise IP-100,2013-02-24 16:18:00,
2013-02-24 11:23:00,31.0,29.0,29.44,East,90,7.0,10.0,97,0.00,,,0.00,Rainwise IP-100,2013-02-24 16:23:00,
2013-02-24 11:28:00,30.0,31.0,29.44,NE,45,3.0,11.0,98,0.00,,,0.00,Rainwise IP-100,2013-02-24 16:28:00,
2013-02-24 11:33:00,30.0,31.0,29.44,ESE,112,5.0,12.0,99,0.00,,,0.00,Rainwise IP-100,2013-02-24 16:33:00,
2013-02-24 11:38:00,30.0,31.0,29.44,North,360,4.0,13.0,100,0.00,,,0.00,Rainwise IP-100,2013-02-24 16:38:00,
2013-02-24 11:43:00,30.0,31.0,29.43,ESE,112,6.0,11.0,100,0.00,,,0.00,Rainwise IP-100,2013-02-24 16:43:00,
2013-02-24 11:48:00,30.0,31.0,29.43,NE,45,7.0,13.0,100,0.06,,,0.01,Rainwise IP-100,2013-02-24 16:48:00,
2013-02-24 11:53:00,30.0,31.0,29.43,ENE,67,4.0,12.0,100,0.06,,,0.01,Rainwise IP-100,2013-02-24 16:53:00,
2013-02-24 11:58:00,30.0,31.0,29.43,NNE,22,8.0,8.0,100,0.00,,,0.01,Rainwise IP-100,2013-02-24 16:58:00,
2013-02-24 12:03:00,30.0,31.0,29.43,ENE,67,9.0,10.0,100,0.00,,,0.01,Rainwise IP-100,2013-02-24 17:03:00,
2013-02-24 12:08:00,29.0,29.0,29.43,East,90,6.0,11.0,100,0.00,,,0.01,Rainwise IP-100,2013-02-24 17:08:00,
2013-02-24 12:13:00,29.0,29.0,29.42,East,90,3.0,12.0,100,0.00,,,0.01,Rainwise IP-100,2013-02-24 17:13:00,
2013-02-24 12:18:00,29.0,29.0,29.42,ENE,67,11.0,14.0,100,0.00,,,0.01,Rainwise IP-100,2013-02-24 17:18:00,
2013-02-24 12:23:00,29.0,29.0,29.42,ENE,67,7.0,12.0,100,0.00,,,0.01,Rainwise IP-100,2013-02-24 17:23:00,
2013-02-24 12:28:00,29.0,29.0,29.42,NNE,22,7.0,12.0,100,0.00,,,0.01,Rainwise IP-100,2013-02-24 17:28:00,
2013-02-24 12:33:00,29.0,29.0,29.41,ESE,112,4.0,15.0,100,0.00,,,0.01,Rainwise IP-100,2013-02-24 17:33:00,
2013-02-24 12:38:00,29.0,29.0,29.41,East,90,3.0,12.0,100,0.00,,,0.01,Rainwise IP-100,2013-02-24 17:38:00,
2013-02-24 12:39:00,29.0,29.0,29.41,NE,45,3.0,12.0,100,0.00,,,0.01,Rainwise IP-100,2013-02-24 17:39:00,
2013-02-24 12:43:00,29.0,29.0,29.41,ENE,67,9.0,12.0,100,0.00,,,0.01,Rainwise IP-100,2013-02-24 17:43:00,
2013-02-24 12:48:00,29.0,29.0,29.41,ESE,112,4.0,13.0,100,0.00,,,0.01,Rainwise IP-100,2013-02-24 17:48:00,
2013-02-24 12:53:00,29.0,29.0,29.41,NE,45,4.0,13.0,100,0.00,,,0.01,Rainwise IP-100,2013-02-24 17:53:00,
2013-02-24 12:58:00,29.0,29.0,29.41,ENE,67,7.0,10.0,100,0.00,,,0.01,Rainwise IP-100,2013-02-24 17:58:00,
2013-02-24 13:03:00,29.0,29.0,29.39,NE,45,3.0,13.0,100,0.00,,,0.01,Rainwise IP-100,2013-02-24 18:03:00,
2013-02-24 13:08:00,29.0,29.0,29.39,NE,45,2.0,14.0,100,0.00,,,0.01,Rainwise IP-100,2013-02-24 18:08:00,
2013-02-24 13:13:00,29.0,29.0,29.39,East,90,5.0,16.0,100,0.00,,,0.01,Rainwise IP-100,2013-02-24 18:13:00,
2013-02-24 13:18:00,29.0,29.0,29.39,ESE,112,6.0,12.0,100,0.00,,,0.01,Rainwise IP-100,2013-02-24 18:18:00,
2013-02-24 13:23:00,29.0,29.0,29.39,ESE,112,10.0,12.0,100,0.00,,,0.01,Rainwise IP-100,2013-02-24 18:23:00,
2013-02-24 13:28:00,29.0,29.0,29.39,NNE,22,5.0,16.0,100,0.00,,,0.01,Rainwise IP-100,2013-02-24 18:28:00,
2013-02-24 13:33:00,29.0,29.0,29.39,ENE,67,12.0,14.0,100,0.00,,,0.01,Rainwise IP-100,2013-02-24 18:33:00,
2013-02-24 13:38:00,28.0,28.0,29.39,East,90,14.0,15.0,100,0.00,,,0.01,Rainwise IP-100,2013-02-24 18:38:00,
2013-02-24 13:43:00,28.0,28.0,29.38,ENE,67,13.0,19.0,100,0.00,,,0.01,Rainwise IP-100,2013-02-24 18:43:00,
2013-02-24 13:48:00,28.0,28.0,29.38,ENE,67,12.0,19.0,100,0.00,,,0.01,Rainwise IP-100,2013-02-24 18:48:00,
2013-02-24 13:53:00,29.0,29.0,29.38,SSE,157,3.0,15.0,100,0.00,,,0.01,Rainwise IP-100,2013-02-24 18:53:00,
2013-02-24 13:58:00,29.0,29.0,29.38,East,90,11.0,13.0,100,0.00,,,0.01,Rainwise IP-100,2013-02-24 18:58:00,
2013-02-24 14:03:00,29.0,29.0,29.37,ENE,67,15.0,15.0,100,0.00,,,0.01,Rainwise IP-100,2013-02-24 19:03:00,
2013-02-24 14:08:00,29.0,29.0,29.37,ESE,112,3.0,15.0,100,0.00,,,0.01,Rainwise IP-100,2013-02-24 19:08:00,
2013-02-24 14:13:00,29.0,29.0,29.37,East,90,5.0,15.0,100,0.00,,,0.01,Rainwise IP-100,2013-02-24 19:13:00,
2013-02-24 14:18:00,29.0,29.0,29.37,ENE,67,9.0,10.0,100,0.00,,,0.01,Rainwise IP-100,2013-02-24 19:18:00,
2013-02-24 14:23:00,29.0,29.0,29.37,NNE,22,3.0,14.0,100,0.00,,,0.01,Rainwise IP-100,2013-02-24 19:23:00,
2013-02-24 14:28:00,29.0,29.0,29.37,East,90,7.0,15.0,100,0.00,,,0.01,Rainwise IP-100,2013-02-24 19:28:00,
2013-02-24 14:33:00,29.0,29.0,29.37,East,90,6.0,15.0,100,0.00,,,0.01,Rainwise IP-100,2013-02-24 19:33:00,
2013-02-24 14:38:00,29.0,29.0,29.37,SE,135,3.0,12.0,100,0.00,,,0.01,Rainwise IP-100,2013-02-24 19:38:00,
2013-02-24 14:43:00,29.0,29.0,29.37,NE,45,6.0,13.0,100,0.00,,,0.01,Rainwise IP-100,2013-02-24 19:43:00,
2013-02-24 14:48:00,29.0,29.0,29.37,NNE,22,6.0,9.0,100,0.00,,,0.01,Rainwise IP-100,2013-02-24 19:48:00,
2013-02-24 14:53:00,29.0,29.0,29.37,NNE,22,6.0,11.0,100,0.00,,,0.01,Rainwise IP-100,2013-02-24 19:53:00,
2013-02-24 14:58:00,29.0,29.0,29.37,NNE,22,1.0,14.0,100,0.00,,,0.01,Rainwise IP-100,2013-02-24 19:58:00,
2013-02-24 15:02:00,29.0,29.0,29.38,NE,45,4.0,10.0,100,0.00,,,0.01,Rainwise IP-100,2013-02-24 20:02:00,
2013-02-24 15:03:00,29.0,29.0,29.38,ESE,112,3.0,10.0,100,0.00,,,0.01,Rainwise IP-100,2013-02-24 20:03:00,
2013-02-24 15:08:00,29.0,29.0,29.38,NE,45,6.0,12.0,100,0.00,,,0.01,Rainwise IP-100,2013-02-24 20:08:00,
2013-02-24 15:13:00,28.0,28.0,29.37,ENE,67,9.0,14.0,100,0.00,,,0.01,Rainwise IP-100,2013-02-24 20:13:00,
2013-02-24 15:18:00,28.0,28.0,29.37,ESE,112,4.0,14.0,100,0.00,,,0.01,Rainwise IP-100,2013-02-24 20:18:00,
2013-02-24 15:22:00,28.0,28.0,29.37,ESE,112,6.0,17.0,100,0.00,,,0.01,Rainwise IP-100,2013-02-24 20:22:00,
2013-02-24 15:27:00,28.0,28.0,29.37,SSE,157,4.0,14.0,100,0.00,,,0.01,Rainwise IP-100,2013-02-24 20:27:00,
2013-02-24 15:32:00,28.0,28.0,29.37,East,90,6.0,13.0,100,0.00,,,0.01,Rainwise IP-100,2013-02-24 20:32:00,
2013-02-24 15:37:00,28.0,28.0,29.37,East,90,7.0,10.0,100,0.00,,,0.01,Rainwise IP-100,2013-02-24 20:37:00,
2013-02-24 15:42:00,28.0,28.0,29.36,NE,45,8.0,12.0,100,0.00,,,0.01,Rainwise IP-100,2013-02-24 20:42:00,
2013-02-24 15:47:00,28.0,28.0,29.36,East,90,3.0,10.0,100,0.00,,,0.01,Rainwise IP-100,2013-02-24 20:47:00,
2013-02-24 15:52:00,28.0,28.0,29.36,NNE,22,6.0,13.0,100,0.00,,,0.01,Rainwise IP-100,2013-02-24 20:52:00,
2013-02-24 15:57:00,28.0,28.0,29.36,North,360,6.0,12.0,100,0.00,,,0.01,Rainwise IP-100,2013-02-24 20:57:00,
2013-02-24 16:02:00,28.0,28.0,29.36,NE,45,7.0,10.0,100,0.00,,,0.01,Rainwise IP-100,2013-02-24 21:02:00,
2013-02-24 16:07:00,28.0,28.0,29.36,NNE,22,8.0,10.0,100,0.00,,,0.01,Rainwise IP-100,2013-02-24 21:07:00,
2013-02-24 16:12:00,28.0,28.0,29.37,ENE,67,9.0,15.0,100,0.00,,,0.01,Rainwise IP-100,2013-02-24 21:12:00,
2013-02-24 16:13:00,28.0,28.0,29.37,South,180,5.0,15.0,100,0.00,,,0.01,Rainwise IP-100,2013-02-24 21:13:00,
2013-02-24 16:16:00,28.0,28.0,29.37,North,360,7.0,20.0,100,0.00,,,0.01,Rainwise IP-100,2013-02-24 21:16:00,
2013-02-24 16:21:00,28.0,28.0,29.38,East,90,2.0,17.0,100,0.00,,,0.01,Rainwise IP-100,2013-02-24 21:21:00,
2013-02-24 16:24:00,28.0,28.0,29.38,East,90,3.0,12.0,100,0.00,,,0.01,Rainwise IP-100,2013-02-24 21:24:00,
2013-02-24 16:29:00,28.0,28.0,29.38,NNE,22,1.0,8.0,100,0.00,,,0.01,Rainwise IP-100,2013-02-24 21:29:00,
2013-02-24 16:34:00,28.0,28.0,29.38,NE,45,6.0,12.0,100,0.00,,,0.01,Rainwise IP-100,2013-02-24 21:34:00,
2013-02-24 16:39:00,28.0,28.0,29.38,East,90,1.0,14.0,100,0.00,,,0.01,Rainwise IP-100,2013-02-24 21:39:00,
2013-02-24 16:44:00,28.0,28.0,29.38,East,90,1.0,9.0,100,0.00,,,0.01,Rainwise IP-100,2013-02-24 21:44:00,
2013-02-24 16:49:00,28.0,28.0,29.38,North,360,5.0,6.0,100,0.00,,,0.01,Rainwise IP-100,2013-02-24 21:49:00,
2013-02-24 16:54:00,28.0,28.0,29.38,East,90,10.0,16.0,100,0.00,,,0.01,Rainwise IP-100,2013-02-24 21:54:00,
2013-02-24 16:59:00,28.0,28.0,29.38,NNE,22,6.0,13.0,100,0.00,,,0.01,Rainwise IP-100,2013-02-24 21:59:00,
2013-02-24 17:04:00,28.0,28.0,29.37,East,90,5.0,10.0,100,0.00,,,0.01,Rainwise IP-100,2013-02-24 22:04:00,
2013-02-24 17:09:00,28.0,28.0,29.37,East,90,4.0,10.0,100,0.00,,,0.01,Rainwise IP-100,2013-02-24 22:09:00,
2013-02-24 17:14:00,28.0,28.0,29.37,NE,45,0.0,8.0,100,0.00,,,0.01,Rainwise IP-100,2013-02-24 22:14:00,
2013-02-24 17:19:00,28.0,28.0,29.37,NE,45,5.0,9.0,100,0.00,,,0.01,Rainwise IP-100,2013-02-24 22:19:00,
2013-02-24 17:24:00,28.0,28.0,29.37,ESE,112,4.0,9.0,100,0.00,,,0.01,Rainwise IP-100,2013-02-24 22:24:00,
2013-02-24 17:29:00,28.0,28.0,29.37,ESE,112,3.0,6.0,100,0.00,,,0.01,Rainwise IP-100,2013-02-24 22:29:00,
2013-02-24 17:34:00,28.0,28.0,29.36,SSE,157,1.0,10.0,100,0.00,,,0.01,Rainwise IP-100,2013-02-24 22:34:00,
2013-02-24 17:39:00,28.0,28.0,29.36,ENE,67,4.0,7.0,100,0.00,,,0.01,Rainwise IP-100,2013-02-24 22:39:00,
2013-02-24 17:44:00,28.0,28.0,29.37,NE,45,4.0,7.0,100,0.00,,,0.01,Rainwise IP-100,2013-02-24 22:44:00,
2013-02-24 17:49:00,28.0,28.0,29.37,NE,45,1.0,8.0,100,0.00,,,0.01,Rainwise IP-100,2013-02-24 22:49:00,
2013-02-24 17:54:00,28.0,28.0,29.37,NE,45,2.0,5.0,100,0.00,,,0.01,Rainwise IP-100,2013-02-24 22:54:00,
2013-02-24 17:59:00,28.0,28.0,29.37,ENE,67,4.0,6.0,100,0.00,,,0.01,Rainwise IP-100,2013-02-24 22:59:00,
2013-02-24 18:04:00,28.0,28.0,29.37,East,90,6.0,6.0,100,0.00,,,0.01,Rainwise IP-100,2013-02-24 23:04:00,
2013-02-24 18:09:00,28.0,28.0,29.37,NNE,22,2.0,7.0,100,0.00,,,0.01,Rainwise IP-100,2013-02-24 23:09:00,
2013-02-24 18:14:00,27.0,28.0,29.37,NNE,22,1.0,4.0,100,0.00,,,0.01,Rainwise IP-100,2013-02-24 23:14:00,
2013-02-24 18:19:00,27.0,28.0,29.37,NE,45,0.0,5.0,100,0.00,,,0.01,Rainwise IP-100,2013-02-24 23:19:00,
2013-02-24 18:24:00,27.0,28.0,29.37,ENE,67,2.0,4.0,100,0.00,,,0.01,Rainwise IP-100,2013-02-24 23:24:00,
2013-02-24 18:29:00,27.0,28.0,29.37,North,360,1.0,7.0,100,0.00,,,0.01,Rainwise IP-100,2013-02-24 23:29:00,
2013-02-24 18:34:00,27.0,28.0,29.37,NE,45,0.0,6.0,100,0.00,,,0.01,Rainwise IP-100,2013-02-24 23:34:00,
2013-02-24 18:39:00,27.0,28.0,29.37,NNE,22,4.0,7.0,100,0.00,,,0.01,Rainwise IP-100,2013-02-24 23:39:00,
2013-02-24 18:44:00,27.0,28.0,29.38,NE,45,3.0,5.0,100,0.00,,,0.01,Rainwise IP-100,2013-02-24 23:44:00,
2013-02-24 18:49:00,27.0,28.0,29.38,North,360,0.0,8.0,100,0.00,,,0.01,Rainwise IP-100,2013-02-24 23:49:00,
2013-02-24 18:54:00,27.0,28.0,29.38,NNE,22,1.0,4.0,100,0.00,,,0.01,Rainwise IP-100,2013-02-24 23:54:00,
2013-02-24 18:59:00,27.0,28.0,29.38,NNE,22,3.0,5.0,100,0.00,,,0.01,Rainwise IP-100,2013-02-24 23:59:00,
2013-02-24 19:04:00,27.0,28.0,29.38,North,360,5.0,6.0,100,0.00,,,0.01,Rainwise IP-100,2013-02-25 00:04:00,
2013-02-24 19:09:00,27.0,28.0,29.38,NE,45,5.0,6.0,100,0.00,,,0.01,Rainwise IP-100,2013-02-25 00:09:00,
2013-02-24 19:14:00,27.0,28.0,29.38,NNE,22,2.0,7.0,100,0.00,,,0.01,Rainwise IP-100,2013-02-25 00:14:00,
2013-02-24 19:19:00,27.0,28.0,29.38,NE,45,3.0,6.0,100,0.00,,,0.01,Rainwise IP-100,2013-02-25 00:19:00,
2013-02-24 19:24:00,28.0,28.0,29.38,NNE,22,4.0,6.0,100,0.00,,,0.01,Rainwise IP-100,2013-02-25 00:24:00,
2013-02-24 19:29:00,28.0,28.0,29.38,NE,45,3.0,7.0,100,0.00,,,0.01,Rainwise IP-100,2013-02-25 00:29:00,
2013-02-24 19:34:00,28.0,28.0,29.39,NE,45,2.0,6.0,100,0.00,,,0.01,Rainwise IP-100,2013-02-25 00:34:00,
2013-02-24 19:39:00,28.0,28.0,29.39,North,360,3.0,5.0,100,0.00,,,0.01,Rainwise IP-100,2013-02-25 00:39:00,
2013-02-24 19:44:00,28.0,28.0,29.38,North,360,4.0,7.0,100,0.00,,,0.01,Rainwise IP-100,2013-02-25 00:44:00,
2013-02-24 19:49:00,28.0,28.0,29.38,NNE,22,5.0,7.0,100,0.00,,,0.01,Rainwise IP-100,2013-02-25 00:49:00,
2013-02-24 19:54:00,28.0,28.0,29.39,North,360,4.0,10.0,100,0.00,,,0.01,Rainwise IP-100,2013-02-25 00:54:00,
2013-02-24 19:59:00,28.0,28.0,29.39,NE,45,3.0,8.0,100,0.00,,,0.01,Rainwise IP-100,2013-02-25 00:59:00,
2013-02-24 20:04:00,28.0,28.0,29.39,North,360,4.0,10.0,100,0.00,,,0.01,Rainwise IP-100,2013-02-25 01:04:00,
2013-02-24 20:09:00,28.0,28.0,29.39,NNE,22,5.0,7.0,100,0.00,,,0.01,Rainwise IP-100,2013-02-25 01:09:00,
2013-02-24 20:14:00,28.0,28.0,29.40,NE,45,5.0,8.0,100,0.00,,,0.01,Rainwise IP-100,2013-02-25 01:14:00,
2013-02-24 20:19:00,28.0,28.0,29.40,North,360,1.0,9.0,100,0.00,,,0.01,Rainwise IP-100,2013-02-25 01:19:00,
2013-02-24 20:24:00,28.0,28.0,29.41,North,360,6.0,8.0,99,0.00,,,0.01,Rainwise IP-100,2013-02-25 01:24:00,
2013-02-24 20:29:00,28.0,28.0,29.41,North,360,6.0,10.0,98,0.00,,,0.01,Rainwise IP-100,2013-02-25 01:29:00,
2013-02-24 20:34:00,28.0,28.0,29.41,NNE,22,6.0,8.0,97,0.00,,,0.01,Rainwise IP-100,2013-02-25 01:34:00,
2013-02-24 20:39:00,28.0,26.0,29.41,NNE,22,5.0,10.0,96,0.00,,,0.01,Rainwise IP-100,2013-02-25 01:39:00,
2013-02-24 20:44:00,28.0,26.0,29.41,NNE,22,5.0,10.0,95,0.00,,,0.01,Rainwise IP-100,2013-02-25 01:44:00,
2013-02-24 20:49:00,28.0,26.0,29.41,NNE,22,3.0,10.0,94,0.00,,,0.01,Rainwise IP-100,2013-02-25 01:49:00,
2013-02-24 20:54:00,28.0,26.0,29.41,North,360,4.0,8.0,94,0.00,,,0.01,Rainwise IP-100,2013-02-25 01:54:00,
2013-02-24 20:59:00,28.0,26.0,29.41,NNE,22,8.0,8.0,93,0.00,,,0.01,Rainwise IP-100,2013-02-25 01:59:00,
2013-02-24 21:04:00,28.0,26.0,29.42,NNE,22,6.0,12.0,92,0.00,,,0.01,Rainwise IP-100,2013-02-25 02:04:00,
2013-02-24 21:09:00,28.0,26.0,29.42,NNE,22,3.0,9.0,91,0.00,,,0.01,Rainwise IP-100,2013-02-25 02:09:00,
2013-02-24 21:14:00,28.0,26.0,29.41,NE,45,3.0,8.0,90,0.00,,,0.01,Rainwise IP-100,2013-02-25 02:14:00,
2013-02-24 21:19:00,28.0,26.0,29.41,North,360,4.0,12.0,90,0.00,,,0.01,Rainwise IP-100,2013-02-25 02:19:00,
2013-02-24 21:24:00,28.0,24.0,29.41,NNE,22,5.0,14.0,89,0.00,,,0.01,Rainwise IP-100,2013-02-25 02:24:00,
2013-02-24 21:29:00,28.0,24.0,29.41,North,360,9.0,9.0,89,0.00,,,0.01,Rainwise IP-100,2013-02-25 02:29:00,
2013-02-24 21:34:00,28.0,24.0,29.41,NE,45,8.0,10.0,88,0.00,,,0.01,Rainwise IP-100,2013-02-25 02:34:00,
2013-02-24 21:39:00,28.0,24.0,29.41,North,360,6.0,11.0,87,0.00,,,0.01,Rainwise IP-100,2013-02-25 02:39:00,
2013-02-24 21:44:00,28.0,24.0,29.41,NE,45,10.0,10.0,87,0.00,,,0.01,Rainwise IP-100,2013-02-25 02:44:00,
2013-02-24 21:49:00,28.0,24.0,29.41,NNE,22,7.0,10.0,86,0.00,,,0.01,Rainwise IP-100,2013-02-25 02:49:00,
2013-02-24 21:54:00,28.0,24.0,29.41,North,360,5.0,11.0,85,0.00,,,0.01,Rainwise IP-100,2013-02-25 02:54:00,
2013-02-24 21:59:00,28.0,24.0,29.41,North,360,7.0,12.0,85,0.00,,,0.01,Rainwise IP-100,2013-02-25 02:59:00,
2013-02-24 22:04:00,28.0,24.0,29.41,NE,45,3.0,10.0,86,0.00,,,0.01,Rainwise IP-100,2013-02-25 03:04:00,
2013-02-24 22:09:00,28.0,24.0,29.41,North,360,4.0,9.0,86,0.00,,,0.01,Rainwise IP-100,2013-02-25 03:09:00,
2013-02-24 22:14:00,28.0,24.0,29.42,NNE,22,10.0,11.0,85,0.00,,,0.01,Rainwise IP-100,2013-02-25 03:14:00,
2013-02-24 22:19:00,28.0,24.0,29.42,NNE,22,6.0,13.0,85,0.00,,,0.01,Rainwise IP-100,2013-02-25 03:19:00,
2013-02-24 22:24:00,28.0,24.0,29.42,NNE,22,6.0,8.0,86,0.00,,,0.01,Rainwise IP-100,2013-02-25 03:24:00,
2013-02-24 22:29:00,28.0,24.0,29.42,North,360,6.0,10.0,87,0.00,,,0.01,Rainwise IP-100,2013-02-25 03:29:00,
2013-02-24 22:34:00,28.0,24.0,29.41,ENE,67,2.0,10.0,88,0.00,,,0.01,Rainwise IP-100,2013-02-25 03:34:00,
2013-02-24 22:39:00,28.0,24.0,29.41,North,360,7.0,13.0,89,0.00,,,0.01,Rainwise IP-100,2013-02-25 03:39:00,
2013-02-24 22:44:00,27.0,26.0,29.42,North,360,3.0,15.0,90,0.00,,,0.01,Rainwise IP-100,2013-02-25 03:44:00,
2013-02-24 22:49:00,27.0,26.0,29.42,NE,45,6.0,10.0,90,0.00,,,0.01,Rainwise IP-100,2013-02-25 03:49:00,
2013-02-24 22:54:00,27.0,26.0,29.43,NNE,22,6.0,11.0,90,0.00,,,0.01,Rainwise IP-100,2013-02-25 03:54:00,
2013-02-24 22:59:00,27.0,26.0,29.43,ENE,67,4.0,12.0,90,0.00,,,0.01,Rainwise IP-100,2013-02-25 03:59:00,
2013-02-24 23:04:00,27.0,26.0,29.43,North,360,8.0,13.0,90,0.00,,,0.01,Rainwise IP-100,2013-02-25 04:04:00,
2013-02-24 23:09:00,27.0,26.0,29.43,NNE,22,5.0,10.0,90,0.00,,,0.01,Rainwise IP-100,2013-02-25 04:09:00,
2013-02-24 23:14:00,27.0,26.0,29.42,North,360,0.0,9.0,91,0.00,,,0.01,Rainwise IP-100,2013-02-25 04:14:00,
2013-02-24 23:19:00,27.0,26.0,29.42,North,360,1.0,8.0,91,0.00,,,0.01,Rainwise IP-100,2013-02-25 04:19:00,
2013-02-24 23:24:00,27.0,26.0,29.43,NE,45,1.0,8.0,91,0.00,,,0.01,Rainwise IP-100,2013-02-25 04:24:00,
2013-02-24 23:29:00,27.0,26.0,29.43,North,360,5.0,8.0,92,0.00,,,0.01,Rainwise IP-100,2013-02-25 04:29:00,
2013-02-24 23:34:00,27.0,26.0,29.44,North,360,2.0,9.0,92,0.00,,,0.01,Rainwise IP-100,2013-02-25 04:34:00,
2013-02-24 23:39:00,27.0,26.0,29.44,NNE,22,8.0,12.0,90,0.00,,,0.01,Rainwise IP-100,2013-02-25 04:39:00,
2013-02-24 23:44:00,27.0,26.0,29.44,North,360,3.0,15.0,90,0.00,,,0.01,Rainwise IP-100,2013-02-25 04:44:00,
2013-02-24 23:49:00,27.0,26.0,29.44,North,360,4.0,10.0,90,0.00,,,0.01,Rainwise IP-100,2013-02-25 04:49:00,
2013-02-24 23:54:00,26.0,24.0,29.44,NNE,22,5.0,17.0,90,0.00,,,0.01,Rainwise IP-100,2013-02-25 04:54:00,
2013-02-24 23:59:00,26.0,24.0,29.44,North,360,5.0,10.0,91,0.00,,,0.01,Rainwise IP-100,2013-02-25 04:59:00,